This is the latest recevied weather packets stored in our database for station/object KC5EZZ-2. If no packets are shown the sender has not sent any weather packets the latest 10 day(s).
| Time | Temp. | Humidity | Pressure | Rain* | Wind** | Luminosity | Snow |
|---|---|---|---|---|---|---|---|
| 1778058375 | 15.56° C | - | - | 0 mm | 2.24 m/s, 338° | - | - |
| 1778058072 | 15.56° C | - | - | 0 mm | 3.13 m/s, 359° | - | - |
| 1778057970 | 15.56° C | - | - | 0 mm | 3.58 m/s, 354° | - | - |
| 1778057773 | 15.56° C | - | - | 0 mm | 3.58 m/s, 354° | - | - |
| 1778057473 | 16.11° C | - | - | 0 mm | 4.02 m/s, 8° | - | - |
| 1778057171 | 16.11° C | - | - | 0 mm | 3.13 m/s, 7° | - | - |
| 1778056872 | 16.11° C | - | - | 0 mm | 4.02 m/s, 359° | - | - |
| 1778056572 | 16.11° C | - | - | 0 mm | 4.47 m/s, 0° | - | - |
| 1778056270 | 16.67° C | - | - | 0 mm | 3.58 m/s, 14° | - | - |
| 1778055971 | 16.67° C | - | - | 0 mm | 3.58 m/s, 347° | - | - |
| 1778055671 | 16.67° C | - | - | 0 mm | 2.68 m/s, 353° | - | - |
| 1778055369 | 16.67° C | - | - | 0 mm | 2.68 m/s, 359° | - | - |
| 1778055069 | 17.22° C | - | - | 0 mm | 3.58 m/s, 356° | - | - |
| 1778054770 | 17.22° C | - | - | 0 mm | 4.02 m/s, 7° | - | - |
| 1778054467 | 17.22° C | - | - | 0 mm | 4.02 m/s, 13° | - | - |
| 1778054168 | 17.78° C | - | - | 0 mm | 1.79 m/s, 24° | - | - |
| 1778053868 | 17.78° C | - | - | 0 mm | 3.13 m/s, 1° | - | - |
| 1778053566 | 17.78° C | - | - | 0 mm | 4.47 m/s, 11° | - | - |
| 1778053266 | 17.78° C | - | - | 0 mm | 4.02 m/s, 0° | - | - |
| 1778052967 | 17.78° C | - | - | 0 mm | 4.02 m/s, 14° | - | - |
| 1778052665 | 18.33° C | - | - | 0 mm | 2.68 m/s, 4° | - | - |
| 1778052365 | 18.89° C | - | - | 0 mm | 4.02 m/s, 35° | - | - |
| 1778052066 | 18.89° C | - | - | 0 mm | 4.02 m/s, 13° | - | - |
| 1778051763 | 18.89° C | - | - | 0 mm | 4.47 m/s, 25° | - | - |
| 1778051464 | 19.44° C | - | - | 0 mm | 3.58 m/s, 17° | - | - |
* Rain latest hour (hover to see other rain measurements)
** Current wind speed in m/s (hover to see current wind gust speed)